Tracking 29510 objects as of 16-Sep-2024
HD Live streaming from Space Station
objects crossing your sky now

FENGYUN 1C DEB

Track FENGYUN 1C DEB now!
10-day predictions


NORAD ID: 33731
Int'l Code: 1999-025DHU
Perigee: 831.7 km
Apogee: 1,022.7 km
Inclination: 99.5 °
Period: 103.4 minutes
Semi major axis: 7298 km
RCS: 0.0076 m2 (small)
Launch date: May 10, 1999
Source: People's Republic of China (PRC)
Launch site: Taiyaun Space Center, China (TSC)

Note: This is SATELLITE DEBRIS
Your satellite tracking list
Your tracking list is empty




NASA's NSSDC Master Catalog

Two Line Element Set (TLE):
1 33731U 99025DHU 24259.75310658  .00005964  00000-0  43507-2 0  9994
2 33731  99.4643 265.1706 0130890 197.0724 162.6011 13.92455584841378
Source of the keplerian elements: AFSPC